[[{"header":{"parameterUnit":"m.s-1","parameterCategory":1,"la1":30.2991,"la2":30.254,"lo1":-89.0895,"lo2":-89.0444,"dy":0.0017,"dx":0.0017,"nx":28,"ny":28,"refTime":"2024-02-14T09:00:00:Z","depth":0,"parameterNumber":2,"parameterNumberName":"U-component_of_WINDS"},"data":[0,0,0,0,0,0,0,0,0,0,0,0,0,0,0,0,0,0,0,0,0,0,0,0,0,0,0,0,0,0,0,0,0,0,0,0,0,0,0,0,0,0,0,0,0,0,0,0,0,0,0,0,0,0,0,0,0,0,-0.027,-0.0269,0,-0.0201,-0.0201,-0.02,-0.0135,-0.0134,-0.0133,-0.0132,-0.006,-0.0059,-0.0058,0,0,0,0,0,0,0,0,0,0,0,0,0,-0.0343,-0.0342,-0.027,-0.0269,-0.0268,-0.0201,-0.0201,-0.02,-0.0135,-0.0134,-0.0133,-0.0132,-0.0061,-0.0059,-0.0058,0,0,0,0,0,0,0,0,0,0,0,0,0,-0.0296,-0.0341,-0.027,-0.0228,-0.0223,-0.0202,-0.02,-0.0199,-0.0135,-0.0134,-0.0133,-0.0132,-0.0061,-0.006,-0.0058,-0.0072,0,0,-0.0053,-0.0052,0,0,0,0,0,0,0,0,-0.0299,-0.0294,-0.0235,-0.0231,-0.0226,-0.0175,-0.02,-0.0156,-0.0136,-0.0169,-0.0132,-0.0131,-0.01,-0.0095,-0.0084,-0.0068,-0.0065,-0.0052,-0.0051,-0.0051,-0.005,0,0,0,0,0,0,0,-0.0302,-0.0296,-0.0243,-0.0234,-0.0228,-0.0212,-0.0204,-0.0191,-0.0142,-0.0166,-0.0161,-0.0154,-0.0097,-0.0086,-0.0082,-0.0064,-0.0052,-0.0051,-0.005,-0.0049,-0.0055,-0.0056,0,0,0,0,0,0,-0.0312,-0.0299,-0.0245,-0.024,-0.026,-0.0212,-0.0203,-0.0193,-0.0142,-0.0133,-0.0155,-0.0151,-0.009,-0.0084,-0.0079,-0.0091,-0.0051,-0.0049,-0.0048,-0.0054,-0.0055,-0.0057,0,0,0,0,0,0,-0.0314,-0.0308,-0.0247,-0.0269,-0.026,-0.0212,-0.0201,-0.0192,-0.0181,-0.0133,-0.0124,-0.0153,-0.0089,-0.0082,-0.0074,-0.0088,-0.0048,-0.0047,-0.0053,-0.0054,-0.0056,-0.0116,0,0,0,0,0,0,-0.0316,-0.0309,-0.0314,-0.0269,-0.0259,-0.0244,-0.0202,-0.0192,-0.0179,-0.0173,-0.0129,-0.0121,-0.0087,-0.0077,-0.0072,-0.0085,-0.0045,-0.0051,-0.0053,-0.0055,-0.0113,-0.012,-0.0126,0,0,0,0,0,-0.0319,-0.0333,-0.0315,-0.0308,-0.0264,-0.0245,-0.0239,-0.02,-0.018,-0.0184,-0.0154,-0.0122,-0.0088,-0.0077,-0.0071,-0.0083,-0.005,-0.0053,-0.0055,-0.011,-0.0118,-0.0126,0,0,0,0,0,0,-0.038,-0.0327,-0.0305,-0.0305,-0.028,-0.0234,-0.0238,-0.021,-0.019,-0.0185,-0.0137,-0.0128,-0.0126,-0.0104,-0.0092,-0.0094,-0.0064,-0.0066,-0.0108,-0.0116,-0.0122,-0.0127,-0.0044,0,0,0,0,0,-0.0394,-0.0383,-0.0337,-0.0341,-0.033,-0.0287,-0.0277,-0.0249,-0.0221,-0.021,-0.0178,-0.0151,-0.0134,-0.0124,-0.0106,-0.011,-0.0099,-0.0115,-0.0122,-0.0128,-0.0129,-0.0129,-0.0136,-0.0066,-0.0066,-0.0066,0,0,-0.0421,-0.0391,-0.0387,-0.0353,-0.033,-0.0319,-0.0278,-0.0268,-0.026,-0.0208,-0.0198,-0.0175,-0.0142,-0.014,-0.0137,-0.0121,-0.0146,-0.0131,-0.0136,-0.0134,-0.0133,-0.0139,-0.0145,-0.0067,-0.0067,-0.0067,0,0,-0.0466,-0.0442,-0.0443,-0.0422,-0.0388,-0.0359,-0.036,-0.0318,-0.03,-0.029,-0.0251,-0.024,-0.0212,-0.019,-0.0175,-0.0212,-0.0182,-0.0208,-0.0242,-0.0242,-0.0248,-0.0252,-0.0265,-0.027,-0.021,-0.021,-0.021,0,-0.0504,-0.0487,-0.0447,-0.044,-0.0426,-0.038,-0.038,-0.0361,-0.0323,-0.0314,-0.0297,-0.026,-0.0235,-0.0227,-0.0236,-0.0226,-0.0225,-0.0212,-0.025,-0.0255,-0.0258,-0.027,-0.0275,-0.0213,-0.0213,-0.0213,-0.0212,0,-0.0535,-0.0524,-0.0529,-0.0494,-0.0481,-0.0478,-0.0436,-0.0428,-0.0402,-0.0375,-0.0365,-0.0333,-0.0308,-0.0304,-0.0278,-0.0292,-0.0284,-0.026,-0.0229,-0.0269,-0.0279,-0.0283,-0.0218,-0.0217,-0.0216,-0.0215,0,0,-0.0615,-0.0559,-0.0561,-0.0544,-0.0505,-0.0495,-0.049,-0.0465,-0.0458,-0.0434,-0.0428,-0.0406,-0.0383,-0.0366,-0.0338,-0.0339,-0.037,-0.0314,-0.0312,-0.0325,-0.0382,-0.04,-0.0406,-0.035,-0.0351,-0.0351,-0.0385,0,-0.0652,-0.0639,-0.0604,-0.0602,-0.0591,-0.0548,-0.0543,-0.0518,-0.0493,-0.0479,-0.0451,-0.0436,-0.0408,-0.0397,-0.0396,-0.0366,-0.038,-0.0363,-0.0343,-0.0343,-0.0351,-0.0411,-0.0429,-0.0462,-0.0388,-0.0389,-0.0389,0,-0.0692,-0.0672,-0.067,-0.063,-0.0624,-0.0621,-0.0595,-0.0584,-0.0554,-0.0536,-0.0518,-0.0487,-0.0478,-0.0451,-0.0438,-0.0428,-0.0417,-0.0401,-0.0402,-0.0397,-0.0367,-0.0407,-0.0472,-0.0476,-0.0395,-0.0395,-0.0394,0,-0.0749,-0.0721,-0.0716,-0.0703,-0.0658,-0.0656,-0.0637,-0.0606,-0.0594,-0.0572,-0.0564,-0.0541,-0.0528,-0.0511,-0.0474,-0.0458,-0.0466,-0.0436,-0.0449,-0.045,-0.0451,-0.0451,-0.0514,-0.0447,-0.0447,-0.0447,-0.0447,0,-0.0793,-0.0793,-0.0741,-0.0737,-0.0736,-0.0695,-0.0695,-0.0671,-0.0645,-0.0636,-0.0597,-0.059,-0.0542,-0.0529,-0.05,-0.0494,-0.0488,-0.0473,-0.0465,-0.0475,-0.0477,-0.0467,-0.0463,-0.0448,-0.0448,-0.0448,-0.0448,0,-0.0856,-0.0821,-0.0812,-0.077,-0.0759,-0.076,-0.0724,-0.0719,-0.0692,-0.0681,-0.0676,-0.0634,-0.0616,-0.0579,-0.0551,-0.0532,-0.0531,-0.0518,-0.0541,-0.0536,-0.0551,-0.055,-0.0609,-0.0614,-0.0545,-0.0546,-0.0547,0,-0.0885,-0.0884,-0.0843,-0.0834,-0.0817,-0.0804,-0.0791,-0.0751,-0.074,-0.0707,-0.0705,-0.0685,-0.0666,-0.0641,-0.0607,-0.0585,-0.057,-0.0593,-0.0567,-0.0577,-0.0569,-0.0569,-0.0568,-0.0598,-0.0599,-0.0599,-0.06,0,-0.0941,-0.0924,-0.0908,-0.0886,-0.0872,-0.0853,-0.0831,-0.0827,-0.0781,-0.077,-0.0752,-0.0738,-0.071,-0.069,-0.0664,-0.0643,-0.0614,-0.0609,-0.061,-0.062,-0.0633,-0.0625,-0.0556,-0.0607,-0.0606,-0.0606,-0.0605,-0.0605,-0.0987,-0.0984,-0.0954,-0.0938,-0.0918,-0.0898,-0.0892,-0.0865,-0.0849,-0.0823,-0.0801,-0.0785,-0.0756,-0.0717,-0.0699,-0.0685,-0.0671,-0.0674,-0.0674,-0.0675,-0.0679,-0.0637,-0.0681,-0.068,-0.068,-0.068,-0.068,0,-0.104,-0.1019,-0.1004,-0.0975,-0.0962,-0.0938,-0.0912,-0.0903,-0.0889,-0.0865,-0.0848,-0.0827,-0.0808,-0.0774,-0.0751,-0.0747,-0.0733,-0.0742,-0.0741,-0.0737,-0.0694,-0.0694,-0.0754,-0.0754,-0.0754,-0.0754,-0.0754,-0.0754,-0.1066,-0.1059,-0.1039,-0.1022,-0.1001,-0.0985,-0.0973,-0.0955,-0.0935,-0.0914,-0.0898,-0.0876,-0.0848,-0.0823,-0.0804,-0.0795,-0.0787,-0.0801,-0.0787,-0.0747,-0.074,-0.0733,-0.0733,-0.08,-0.08,-0.0831,-0.0831,-0.0831]},{"header":{"parameterUnit":"m.s-1","parameterCategory":1,"la1":30.2991,"la2":30.254,"lo1":-89.0895,"lo2":-89.0444,"dy":0.0017,"dx":0.0017,"nx":28,"ny":28,"refTime":"2024-02-14T09:00:00:Z","depth":0,"parameterNumber":3,"parameterNumberName":"V-component_of_WINDS"},"data":[0,0,0,0,0,0,0,0,0,0,0,0,0,0,0,0,0,0,0,0,0,0,0,0,0,0,0,0,0,0,0,0,0,0,0,0,0,0,0,0,0,0,0,0,0,0,0,0,0,0,0,0,0,0,0,0,0,0,1.0625,1.0625,0,1.0634,1.0634,1.0634,1.0684,1.0685,1.0687,1.0688,1.0692,1.0691,1.069,0,0,0,0,0,0,0,0,0,0,0,0,0,1.0648,1.0648,1.0625,1.0625,1.0625,1.0634,1.0634,1.0634,1.0684,1.0685,1.0687,1.0688,1.0693,1.0691,1.069,0,0,0,0,0,0,0,0,0,0,0,0,0,1.0646,1.0647,1.0625,1.0651,1.0654,1.0634,1.0634,1.0634,1.0684,1.0685,1.0687,1.0689,1.0693,1.0691,1.069,1.0644,0,0,1.0685,1.0685,0,0,0,0,0,0,0,0,1.0646,1.0645,1.0647,1.0649,1.0652,1.066,1.0644,1.0637,1.0683,1.0672,1.0688,1.069,1.068,1.0679,1.0677,1.0644,1.0644,1.0685,1.0684,1.0684,1.0683,0,0,0,0,0,0,0,1.0646,1.0645,1.0628,1.0647,1.065,1.0662,1.0663,1.0643,1.0665,1.0673,1.0677,1.0678,1.0681,1.0678,1.0677,1.0644,1.0685,1.0684,1.0683,1.0682,1.0574,1.0572,0,0,0,0,0,0,1.0643,1.0644,1.0628,1.0629,1.0654,1.066,1.0662,1.0655,1.0666,1.0669,1.0676,1.068,1.068,1.0679,1.0678,1.0624,1.0684,1.0682,1.0681,1.0576,1.0574,1.0572,0,0,0,0,0,0,1.0643,1.0641,1.0628,1.0638,1.0637,1.0657,1.065,1.0655,1.0652,1.0668,1.0672,1.0669,1.0681,1.068,1.0652,1.0625,1.0681,1.068,1.0579,1.0575,1.0573,1.0516,0,0,0,0,0,0,1.0644,1.0641,1.0624,1.0637,1.0636,1.0603,1.0649,1.0654,1.0649,1.0655,1.0662,1.0665,1.0683,1.0654,1.0651,1.0624,1.0679,1.0581,1.0577,1.0574,1.052,1.0512,1.0504,0,0,0,0,0,1.0644,1.0607,1.0623,1.0621,1.0616,1.0601,1.0601,1.0623,1.0647,1.063,1.0641,1.0665,1.0629,1.0651,1.0647,1.0619,1.0583,1.0578,1.0574,1.0524,1.0513,1.0504,0,0,0,0,0,0,1.0588,1.0609,1.0627,1.0593,1.0595,1.061,1.0589,1.0611,1.0605,1.061,1.0636,1.0638,1.0606,1.061,1.0635,1.0576,1.061,1.0605,1.0573,1.0563,1.0555,1.0554,1.0678,0,0,0,0,0,1.0572,1.056,1.0578,1.0546,1.0547,1.0568,1.0562,1.0579,1.0582,1.0583,1.0591,1.0592,1.0581,1.0573,1.0563,1.0522,1.0524,1.0501,1.0493,1.0486,1.0481,1.0459,1.0448,1.0557,1.0557,1.0557,0,0,1.0538,1.0548,1.0538,1.0535,1.0539,1.0524,1.0568,1.055,1.0539,1.058,1.0554,1.0561,1.0563,1.0528,1.0514,1.0531,1.0451,1.0481,1.0475,1.0473,1.0453,1.0443,1.0433,1.0554,1.0555,1.0555,0,0,1.0469,1.0476,1.045,1.0453,1.0459,1.0474,1.0467,1.0479,1.0485,1.0461,1.0491,1.0478,1.0458,1.0458,1.0456,1.0389,1.041,1.0385,1.0341,1.0319,1.031,1.0303,1.0277,1.0268,1.038,1.0379,1.0379,0,1.0425,1.0406,1.0433,1.0414,1.0412,1.045,1.0423,1.0424,1.0426,1.0423,1.0443,1.042,1.0424,1.039,1.0374,1.0371,1.0364,1.0383,1.031,1.0303,1.0296,1.0272,1.0262,1.0376,1.0377,1.0377,1.0377,0,1.0352,1.0338,1.0316,1.0318,1.0314,1.029,1.0313,1.0305,1.0323,1.0335,1.0309,1.0316,1.0309,1.0303,1.0319,1.0271,1.0281,1.0305,1.034,1.0282,1.026,1.0251,1.0372,1.0373,1.0374,1.0375,0,0,1.0245,1.0264,1.0256,1.0257,1.0267,1.0256,1.0235,1.023,1.0221,1.0222,1.0204,1.0187,1.021,1.0207,1.0225,1.0206,1.0151,1.0232,1.0233,1.0216,1.0096,1.0077,1.0066,1.0166,1.0165,1.0164,1.0095,0,1.0177,1.0143,1.0167,1.0128,1.0115,1.0152,1.0133,1.0137,1.0148,1.0138,1.015,1.0137,1.0168,1.0167,1.015,1.0161,1.0127,1.0167,1.0148,1.0147,1.0144,1.0054,1.0033,0.9969,1.0087,1.0086,1.0085,0,1.0093,1.0091,1.0051,1.0065,1.006,1.0043,1.004,1.003,1.0035,1.0044,1.0042,1.0065,1.0044,1.008,1.0051,1.0077,1.0072,1.0076,1.0074,1.0071,1.0111,1.0047,0.9949,0.9938,1.0072,1.0073,1.0074,0,1.0017,1.0005,0.998,0.998,0.9995,0.9982,0.9988,0.9995,0.999,0.9987,0.9984,0.9979,0.9975,0.997,0.999,1.0015,0.9958,0.9996,0.9963,0.9962,0.9947,0.9948,0.9845,0.9947,0.9947,0.9947,0.9947,0,0.9938,0.9911,0.9946,0.993,0.9901,0.993,0.9901,0.991,0.9916,0.9902,0.9933,0.9919,0.9947,0.9936,0.9951,0.9924,0.9923,0.9928,0.9932,0.9924,0.9923,0.9919,0.9924,0.9945,0.9945,0.9946,0.9946,0,0.9847,0.9869,0.9844,0.9861,0.9865,0.9843,0.9857,0.9842,0.9857,0.9838,0.9835,0.9857,0.9845,0.9865,0.9855,0.9866,0.9828,0.984,0.9826,0.9829,0.9795,0.9797,0.9684,0.967,0.9783,0.9782,0.9781,0,0.9794,0.9775,0.9791,0.9784,0.9788,0.9777,0.9773,0.9801,0.9795,0.98,0.9784,0.9775,0.9769,0.9748,0.9762,0.9755,0.9765,0.9727,0.9764,0.9757,0.9763,0.9763,0.9761,0.9718,0.9716,0.9715,0.9714,0,0.9697,0.9709,0.9703,0.97,0.9695,0.9694,0.9695,0.9687,0.9717,0.9709,0.9698,0.9693,0.9684,0.9674,0.9671,0.9675,0.9699,0.9703,0.9695,0.9685,0.9678,0.968,0.9803,0.9705,0.9706,0.9706,0.9707,0.9707,0.9622,0.9607,0.9616,0.9607,0.9612,0.9612,0.96,0.9613,0.9605,0.96,0.9618,0.9602,0.9608,0.9606,0.9608,0.9596,0.9613,0.9601,0.9598,0.9594,0.9588,0.9681,0.9595,0.9596,0.9596,0.9596,0.9596,0,0.9525,0.9533,0.9526,0.9527,0.9521,0.9547,0.9549,0.9542,0.9528,0.9533,0.9527,0.9514,0.9505,0.9519,0.9512,0.95,0.951,0.9497,0.9497,0.9497,0.9574,0.9581,0.9488,0.9488,0.9488,0.9488,0.9488,0.9488,0.9474,0.9449,0.9463,0.944,0.9449,0.9435,0.9434,0.9435,0.9438,0.9423,0.9417,0.9427,0.9434,0.9429,0.9421,0.9425,0.9421,0.9403,0.941,0.9481,0.9492,0.9502,0.9509,0.9402,0.9402,0.9335,0.9334,0.9333]}]]